This is the latest recevied weather packets stored in our database for station/object N5COP-13. If no packets are shown the sender has not sent any weather packets the latest 10 day(s).
| Time | Temp. | Humidity | Pressure | Rain* | Wind** | Luminosity | Snow |
|---|---|---|---|---|---|---|---|
| 1777593543 | 15.56° C | 55% | 1015.4 hPa | 0 mm | - | 91 W/m² | - |
| 1777593237 | 15.56° C | 55% | 1015.1 hPa | 0 mm | - | 88 W/m² | - |
| 1777592937 | 15.56° C | 54% | 1015.3 hPa | 0 mm | - | 102 W/m² | - |
| 1777592632 | 15.56° C | 54% | 1015 hPa | 0 mm | - | 104 W/m² | - |
| 1777592329 | 16.11° C | 51% | 1014.9 hPa | 0 mm | - | 89 W/m² | - |
| 1777592024 | 16.11° C | 51% | 1014.7 hPa | 0 mm | - | 115 W/m² | - |
| 1777591721 | 16.11° C | 50% | 1014.5 hPa | 0 mm | - | 132 W/m² | - |
| 1777591416 | 16.11° C | 50% | 1014.6 hPa | 0 mm | - | 122 W/m² | - |
| 1777591113 | 16.11° C | 50% | 1014.7 hPa | 0 mm | - | 121 W/m² | - |
| 1777590807 | 16.11° C | 49% | 1014.7 hPa | 0 mm | - | 129 W/m² | - |
| 1777590504 | 16.11° C | 49% | 1014.9 hPa | 0 mm | - | 146 W/m² | - |
| 1777590195 | 16.67° C | 48% | 1014.5 hPa | 0 mm | - | 156 W/m² | - |
| 1777589892 | 16.67° C | 48% | 1014.6 hPa | 0 mm | - | 162 W/m² | - |
| 1777589588 | 16.67° C | 47% | 1014.3 hPa | 0 mm | - | 173 W/m² | - |
| 1777589285 | 17.22° C | 45% | 1014.4 hPa | 0 mm | - | 172 W/m² | - |
| 1777588982 | 17.22° C | 43% | 1014.5 hPa | 0 mm | - | 201 W/m² | - |
| 1777588678 | 17.22° C | 41% | 1014.6 hPa | 0 mm | - | 222 W/m² | - |
| 1777588374 | 17.78° C | 38% | 1014.6 hPa | 0 mm | - | 235 W/m² | - |
| 1777588070 | 17.78° C | 38% | 1014.6 hPa | 0 mm | - | 234 W/m² | - |
| 1777587761 | 17.78° C | 38% | 1014.6 hPa | 0 mm | - | 260 W/m² | - |
| 1777587459 | 17.78° C | 38% | 1014.5 hPa | 0 mm | - | 309 W/m² | - |
| 1777587157 | 17.22° C | 38% | 1014.9 hPa | 0 mm | - | 297 W/m² | - |
| 1777586852 | 17.22° C | 38% | 1014.9 hPa | 0 mm | - | 271 W/m² | - |
| 1777586548 | 17.78° C | 38% | 1015 hPa | 0 mm | - | 225 W/m² | - |
| 1777586244 | 17.78° C | 38% | 1015.1 hPa | 0 mm | - | 293 W/m² | - |
* Rain latest hour (hover to see other rain measurements)
** Current wind speed in m/s (hover to see current wind gust speed)